Regional Weather Roundup
Issued by NWS Northern Indiana

Home | Current Version | Previous Version | Text Only | Print | Product List | Glossary On
Versions: 1 2 3 4 5 6 7 8 9 10 11 12 13 14 15 16 17 18 19 20 21 22 23 24 25 26 27 28 29 30 31 32 33 34 35 36 37 38 39 40 41 42 43 44 45 46 47 48 49 50
000
ASUS43 KIWX 191500
RWRIWX

KIWX WEATHER ROUNDUP
NATIONAL WEATHER SERVICE NORTHERN INDIANA
1000 AM EST MON FEB 19 2018

NOTE: "FAIR" INDICATES FEW OR NO CLOUDS BELOW 12,000 FEET WITH NO
SIGNIFICANT WEATHER AND/OR OBSTRUCTIONS TO VISIBILITY.

* THESE STATIONS ARE NOT UNDER NWS QUALITY CONTROL. THEY ALSO MAY NOT
  REPORT WEATHER SUCH AS PRECIPITATION OR FOG.

INZ001>027-191600-
NORTHERN INDIANA

CITY           SKY/WX    TMP DP  RH WIND       PRES   REMARKS
GARY*          LGT RAIN  45  45 100 CALM      29.88S FOG
SOUTH BEND     FOG       38  38 100 SE7       29.93R VSB 1/4
GOSHEN         LGT RAIN  43  42  97 S9        29.95R FOG
MONTICELLO*    HVY RAIN  48  47  95 SE3       29.92S
WARSAW*        HVY RAIN  43  43 100 SE3       29.95R
AUBURN*        RAIN      41  41 100 CALM      29.98R VSB 3/4
FORT WAYNE     HVY RAIN  48  47  96 S7        29.98S FOG
PERU/GRISSOM   RAIN      51  51 100 SE7       29.94S

$$
INZ028>050-191600-
CENTRAL INDIANA

CITY           SKY/WX    TMP DP  RH WIND       PRES   REMARKS
LAFAYETTE      CLOUDY    50  50 100 SE6       29.93R FOG
KOKOMO*        LGT RAIN  48  48 100 SE10      29.96S
MUNCIE*        CLOUDY    54  52  93 S13       29.98R
INDIANAPOLIS   CLOUDY    60  57  89 S17G26    29.97S

$$
MIZ043>046-050>051-056>058-064>065-071>073-077>080-191600-
SOUTHWEST LOWER MICHIGAN

CITY           SKY/WX    TMP DP  RH WIND       PRES   REMARKS
BATTLE CREEK   LGT RAIN  38  37  97 S5        29.93F VSB 1/4
BENTON HARBOR  CLOUDY    41  39  93 SE5       29.91R
COLDWATER*     FOG       39  39 100 S5        29.96R VSB 1/2
HILLSDALE*     FOG       37  36  93 S7        29.94F VSB 1/4
HOLLAND        CLOUDY    41  38  89 SE6       29.89F FOG
GRAND RAPIDS   CLOUDY    39  38  96 S5        29.91F FOG
KALAMAZOO      LGT RAIN  39  38  96 S3        29.93R VSB 1/2
STURGIS*       FOG       41  40  98 S8        29.94R VSB<1/4
THREE RIVERS*  FOG       40  39  99 S8        29.93S VSB 1/4

$$
OHZ001>008-015>018-024>025-191600-
NORTHWEST OHIO

CITY           SKY/WX    TMP DP  RH WIND       PRES   REMARKS
DEFIANCE       LGT RAIN  43  41  93 S7        30.00R FOG
FINDLAY        LGT RAIN  50  46  86 S10       30.00F
TOLEDO EXPRESS CLOUDY    42  42 100 S6        30.00S FOG
TOLEDO METCALF CLOUDY    43  42  97 S8        30.00F FOG
LIMA           LGT RAIN  50  50 100 S14       30.01F FOG

$$
AND FOR LAKE MICHIGAN COASTAL AND OPEN LAKE BUOY OBSERVATIONS

STATION/POSITION TEMP    WIND        PRES    VSBY  WAVE
                 AIR SEA DIR/SP/G                  HT/PER
                 (F)     (DEG/KT/KT) (MB)    (MI)  (FT/S)
CALUMET HARBOR    42     170/  6/  8 1011.0F
MICHIGAN CITY     44     170/ 11/ 14   N/A
BURNS HARBOR      45     180/ 12/ 17 1012.2F
SAINT JOSEPH      41     140/  4/  7 1013.2

$$
&&




USA.gov is the U.S. government's official web portal to all federal, state and local government web resources and services.